This is the latest recevied weather packets stored in our database for station/object BV5AB-13. If no packets are shown the sender has not sent any weather packets the latest 10 day(s).
| Time | Temp. | Humidity | Pressure | Rain* | Wind** | Luminosity | Snow |
|---|---|---|---|---|---|---|---|
| 1777649823 | 24.44° C | 77% | 1004.4 hPa | 0 mm | - | - | - |
| 1777649223 | 24.44° C | 77% | 1004.5 hPa | 0 mm | - | - | - |
| 1777648623 | 24.44° C | 76% | 1004.5 hPa | 0 mm | - | - | - |
| 1777648024 | 24.44° C | 77% | 1004.5 hPa | 0 mm | - | - | - |
| 1777647423 | 24.44° C | 76% | 1004.5 hPa | 0 mm | - | - | - |
| 1777646824 | 24.44° C | 76% | 1004.5 hPa | 0 mm | - | - | - |
| 1777646224 | 24.44° C | 77% | 1004.3 hPa | 0 mm | - | - | - |
| 1777645624 | 24.44° C | 78% | 1004.4 hPa | 0 mm | - | - | - |
| 1777645025 | 24.44° C | 77% | 1004.3 hPa | 0 mm | - | - | - |
| 1777644424 | 24.44° C | 76% | 1004.3 hPa | 0 mm | - | - | - |
| 1777643824 | 25° C | 75% | 1004.2 hPa | 0 mm | - | - | - |
| 1777643224 | 25° C | 74% | 1004.2 hPa | 0 mm | - | - | - |
| 1777642623 | 25° C | 74% | 1004.1 hPa | 0 mm | - | - | - |
| 1777642023 | 25° C | 71% | 1004.1 hPa | 0 mm | - | - | - |
| 1777641423 | 25° C | 72% | 1004.1 hPa | 0 mm | - | - | - |
| 1777640824 | 25° C | 72% | 1004 hPa | 0 mm | - | - | - |
| 1777640224 | 25° C | 73% | 1004 hPa | 0 mm | - | - | - |
| 1777639625 | 25° C | 73% | 1003.9 hPa | 0 mm | - | - | - |
| 1777639024 | 25° C | 72% | 1003.7 hPa | 0 mm | - | - | - |
| 1777638424 | 25° C | 70% | 1003.6 hPa | 0 mm | - | - | - |
| 1777637823 | 25° C | 72% | 1003.6 hPa | 0 mm | - | - | - |
| 1777637224 | 25° C | 71% | 1003.5 hPa | 0 mm | - | - | - |
| 1777636624 | 25° C | 71% | 1003.5 hPa | 0 mm | - | - | - |
| 1777636024 | 25° C | 72% | 1003.4 hPa | 0 mm | - | - | - |
| 1777635425 | 25° C | 72% | 1003.3 hPa | 0 mm | - | - | - |
* Rain latest hour (hover to see other rain measurements)
** Current wind speed in m/s (hover to see current wind gust speed)